Aeroporto :
LOGIN :

Iscrizione | Disclaimer

   EN    FR    IT 

 










Sommario :    VFR   VFR Marginale   IFR   IFR Intensivo   IFR Molto Intensivo
Visibilità : 
Base nubi : 
>= 8 km
>= 3000ft
5 / 8 km
1000 / 3000 ft
1500m / 5 km
500 / 1000 ft
800 / 1500m
200 / 500 ft
< 800m
< 200 ft
Simboli :   Temporali  Nebbia  Neve Forte  Precipitazioni Forti  Vento > 20 kt
SIGMETs :   Varie  Temporali  Ghiacco  Turbolenza  Onda orograficha  Ceneri Vulcaniche






- Altitudine del aeroporto : 364 ft


LFAQ - Albert Bray

ULTIMO METAR :
  • 220400Z AUTO 04015KT 9999 BKN009 OVC013 14/13 Q1012

METARs OBSOLETI :
  • 220330Z AUTO 04015KT 9999 OVC011 14/13 Q1012
  • 220300Z AUTO 04014KT 9999 OVC010/// ///TCU 14/13 Q1012
  • 220230Z AUTO 04012KT 9999 FEW003/// BKN009/// BKN066/// ///TCU 14/13 Q1011
  • 220200Z AUTO 04014KT 9000 -DZ SCT008/// BKN013/// OVC068/// ///TCU 14/13 Q1011
  • 220130Z AUTO 04014KT 9000 -DZ FEW011/// BKN016/// OVC070/// ///CB 14/13 Q1011

Previsioni scadute.



MetMap, La meteo Aeronautica in un colpo d'occhio ! - Copyright ORBIFLY Dicembre 2007 - Disclaimer

ORBIFLY MET'MAP TEAM :

Programmazione e sviluppo : Alexandra Zaïnal
Concezione : Baudouin d'Aumeries
Aiuto per la programmazione : Marc-Olivier Méhu
Supporto tecnico e logistico : Manuel Goepfert
Aiuto per la traduzione : Arnaldo La Scala

Contatto : metmap@orbifly.com




FONTI E CREDITI :

   NOAA